GFSFLT1_250_rhum_324.txt.gz
RH
28 32 27 23 23 21 19 18 17 16 14 13 12 12 12 12 12 12 11 11 12 12 13 14 15 18 18 19 23 22 20 16
11 12 12 12 13 14 14 14 12 12 13 13 14 15 14 14 14 17 19 19 22 27 31 27 21 18 17 17 19 20 20 22
9 10 11 11 11 12 14 15 18 24 34 42 55 63 55 47 39 32 35 36 33 28 25 22 19 16 14 13 14 16 18 16
9 10 11 12 16 21 28 42 63 85 82 63 53 45 44 44 41 41 35 27 21 18 16 14 13 11 10 10 9 9 10 10
12 14 16 23 38 63 80 94 81 50 46 44 41 43 38 28 22 17 14 12 11 11 10 9 9 8 8 8 7 7 7 8
19 26 56 64 81 94 81 50 45 42 38 32 23 17 15 14 12 12 12 11 10 9 9 10 10 10 9 8 7 6 6 5
68 68 71 81 71 49 41 44 39 28 18 16 15 14 12 12 12 10 10 10 10 10 10 8 6 5 4 4 4 3 3 4
72 78 83 57 46 47 42 27 17 16 15 14 12 12 12 11 10 12 11 10 8 7 6 5 5 4 4 3 3 3 3 2
89 82 63 59 47 30 18 16 14 13 12 12 13 13 12 11 11 9 8 8 9 8 7 6 6 6 4 3 3 3 3 2
77 73 59 39 20 17 16 15 13 14 15 14 14 13 11 9 8 11 13 12 12 12 13 9 9 7 6 5 3 3 3 2
70 49 27 18 17 17 14 16 16 16 15 14 11 9 10 12 20 19 18 19 22 18 13 11 9 8 6 5 3 3 2 2
38 22 18 17 17 16 18 17 16 14 12 11 14 16 18 20 20 24 28 23 19 22 14 12 9 8 6 4 3 3 2 2
23 19 18 18 18 19 19 15 14 16 18 23 26 26 26 32 33 38 38 29 24 22 26 13 8 6 5 4 3 2 2 2
20 18 20 20 22 20 17 17 26 31 37 36 32 33 34 36 53 40 56 43 24 30 23 11 8 6 5 4 4 2 2 2
21 22 22 23 20 20 26 37 49 51 50 46 46 48 51 63 51 60 50 38 46 35 21 10 7 6 6 4 4 3 2 2
23 23 24 23 24 32 52 57 56 65 66 62 61 52 71 79 67 59 60 58 50 37 23 18 12 10 6 4 4 3 2 2
22 25 26 26 35 61 66 74 88 93 83 64 81 70 82 70 80 82 71 57 45 43 34 28 14 13 8 4 3 3 3 2
26 26 30 34 46 68 79 89 96 90 88 80 87 68 75 70 76 69 64 56 43 39 30 18 15 13 9 5 3 3 3 3
27 30 33 37 60 73 80 85 87 94 96 97 95 85 76 79 56 72 63 41 46 58 30 18 16 13 11 8 5 3 3 3

GFSFLT1_250_rhum_327.txt.gz
RH
11 11 11 11 10 10 10 10 10 10 12 12 13 14 17 16 16 18 18 15 14 13 12 11 11 11 10 11 11 10 10 11
10 10 10 10 10 10 10 12 14 16 18 18 25 33 35 39 49 53 45 41 42 38 32 25 18 14 11 10 12 14 13 12
9 9 9 10 12 17 22 31 45 44 46 48 44 45 48 54 53 49 48 46 40 36 32 31 29 28 25 22 22 23 26 24
9 10 11 15 21 34 51 64 55 55 50 49 50 46 36 26 20 18 15 14 14 13 13 13 13 12 12 11 11 12 14 16
13 18 26 42 51 58 52 46 46 42 32 24 19 14 13 12 11 10 10 9 10 10 10 9 9 9 9 9 8 8 8 8
18 44 58 77 66 50 47 38 25 18 15 14 12 11 11 10 10 10 9 10 10 9 10 10 9 9 9 8 8 7 7 7
60 72 66 49 48 38 24 17 16 14 13 12 11 12 12 12 12 12 11 12 11 9 8 8 7 7 6 6 5 4 4 4
82 53 51 44 28 18 16 15 14 13 14 14 14 14 12 12 10 9 10 10 8 8 9 8 8 6 5 5 4 4 3 3
53 56 38 22 17 17 16 15 16 17 16 14 12 10 11 11 14 17 16 15 14 17 16 16 13 9 6 5 4 4 4 3
56 31 20 18 18 16 17 19 17 13 12 11 14 17 21 27 30 30 38 35 27 24 28 19 16 11 7 6 5 4 4 3
29 20 19 18 18 20 18 15 13 16 19 22 24 30 34 41 53 52 63 60 53 37 29 22 14 8 7 5 4 4 3 3
19 19 19 21 21 17 16 18 30 35 32 34 34 45 62 67 64 67 71 52 36 25 24 19 11 7 6 5 4 3 3 2
20 20 24 23 18 17 32 49 47 38 36 36 56 70 83 72 74 74 50 36 30 28 17 10 8 6 5 4 3 3 2 2
21 26 25 22 26 43 58 68 58 44 40 51 74 75 74 78 68 46 44 44 35 21 16 12 8 6 4 3 3 2 2 2
26 27 25 39 54 65 72 72 64 51 46 55 75 71 85 79 57 74 48 33 26 18 14 11 8 5 4 3 2 2 2 2
29 29 41 59 71 73 82 83 76 68 57 80 67 91 70 73 84 77 44 22 20 18 14 11 8 5 4 4 3 2 2 2
30 40 60 73 74 76 88 83 77 73 62 69 70 94 76 83 72 48 29 23 19 17 15 13 9 6 4 3 3 2 2 2
34 41 55 67 79 84 89 86 77 71 76 61 83 95 96 85 41 32 29 25 21 20 17 13 9 6 4 3 3 3 2 2
34 41 59 74 76 78 78 88 77 68 52 52 72 99 94 45 31 32 27 25 24 22 16 13 10 6 4 3 3 3 2 2

GFSFLT1_250_rhum_330.txt.gz
RH
14 12 12 11 12 12 11 11 10 10 10 11 12 13 14 17 20 22 23 28 33 36 28 20 16 16 12 10 10 9 9 10
13 13 12 12 12 11 11 11 12 14 17 19 21 27 35 41 47 50 48 39 32 27 28 27 23 20 16 14 16 15 12 10
14 13 12 12 11 12 14 28 45 55 53 49 50 53 51 43 34 29 28 29 25 20 17 16 16 15 15 16 15 16 20 19
13 11 12 14 14 30 44 47 46 46 51 43 34 29 24 20 17 15 13 13 12 12 11 11 11 11 11 11 12 12 12 15
11 19 17 28 51 46 52 52 52 36 28 21 15 12 12 12 11 10 11 11 10 10 10 9 9 9 9 8 8 9 9 9
22 28 47 53 53 55 51 35 24 17 14 13 12 12 12 11 11 11 11 10 9 9 9 8 8 8 8 8 8 9 8 7
55 63 58 53 53 38 23 18 14 14 13 13 13 11 11 10 9 8 8 9 8 8 8 8 8 7 6 6 6 5 6 6
55 53 52 41 26 19 16 14 14 15 14 11 10 10 11 11 12 13 15 15 14 16 16 17 12 11 11 9 8 6 5 4
52 48 28 20 17 16 16 15 14 12 10 10 15 15 18 25 27 30 32 29 32 34 38 33 29 20 12 9 10 10 8 6
38 22 18 16 17 17 14 14 13 12 19 22 20 27 34 41 47 54 52 50 56 56 38 30 24 20 16 13 10 7 5 5
21 17 17 21 19 16 18 22 23 23 22 26 35 41 54 56 63 67 68 61 42 22 19 17 16 15 13 11 8 5 4 4
18 19 22 23 25 28 31 30 27 29 30 35 47 61 67 72 63 52 36 25 21 20 17 16 14 12 10 8 6 4 4 3
20 24 27 33 42 47 34 28 28 38 43 58 76 69 75 65 28 36 37 25 22 19 16 14 11 8 7 5 4 3 3 3
26 30 38 49 52 50 39 29 34 46 65 82 78 71 62 38 33 32 29 26 21 17 13 10 7 6 4 3 3 3 3 3
30 45 56 54 55 62 43 36 42 56 78 99 84 47 37 38 33 30 29 25 17 13 10 8 5 4 3 2 3 3 2 2
35 46 50 60 56 62 53 41 46 56 81 91 66 32 32 31 30 35 26 20 14 12 9 6 4 3 2 3 2 2 2 2
40 53 58 63 63 69 58 43 61 66 90 71 42 41 38 36 35 36 22 20 15 12 8 5 3 3 3 2 2 2 2 2
44 50 64 70 74 68 57 67 70 70 72 43 35 50 48 70 80 24 21 18 14 11 7 5 4 3 3 3 2 2 2 2
50 56 60 67 65 66 61 81 85 50 71 50 67 98 100 100 41 22 20 18 14 11 7 4 4 4 3 3 2 2 2 2

GFSFLT1_250_rhum_333.txt.gz
RH
18 18 19 17 18 17 15 13 11 11 10 10 10 12 17 22 26 32 31 30 28 26 22 19 18 18 16 16 16 14 12 9
23 24 21 20 18 14 13 12 12 12 12 16 27 34 40 40 34 29 29 29 28 26 25 24 23 22 22 23 25 25 24 18
22 21 20 16 13 12 12 12 14 24 40 51 51 49 40 32 26 22 17 14 13 12 12 12 11 11 11 11 12 13 16 20
21 17 14 12 12 14 16 29 42 52 58 50 40 29 19 14 13 13 12 12 11 11 11 10 11 10 10 10 9 10 10 11
14 14 16 17 19 33 46 55 59 54 38 22 14 14 14 14 14 14 12 12 12 12 12 12 12 12 11 10 9 9 8 8
16 17 25 40 53 60 63 54 34 17 14 15 16 17 15 11 11 11 11 12 13 12 13 12 11 11 9 9 9 9 9 8
25 43 62 72 74 54 26 16 16 16 16 15 13 10 12 16 17 20 22 22 26 28 30 27 24 23 22 18 14 11 8 7
54 72 79 55 25 18 19 19 16 14 14 15 18 23 26 32 38 39 40 37 33 29 28 26 24 22 20 15 13 15 15 17
82 61 25 20 19 21 18 16 22 28 24 25 37 38 43 46 42 41 36 32 29 24 22 21 20 19 19 19 18 16 12 12
24 23 20 21 21 24 32 31 30 27 44 47 49 42 40 41 38 30 28 26 26 24 22 19 17 16 16 16 16 16 15 12
22 20 22 28 34 43 35 29 30 44 48 40 39 42 43 32 30 29 27 26 25 22 19 16 15 14 12 12 12 11 12 12
22 24 37 46 50 46 33 41 53 49 38 34 38 34 33 46 33 30 31 28 23 18 15 14 12 11 10 9 8 8 8 8
26 41 55 54 54 36 39 48 40 41 38 33 39 63 50 36 39 35 28 22 18 15 12 9 8 7 6 6 5 5 5 4
38 48 55 56 48 39 56 45 36 36 36 56 79 64 68 46 33 27 22 17 13 11 8 6 5 4 3 3 3 2 2 3
49 57 56 59 46 45 52 35 32 38 61 96 90 100 69 33 25 22 16 14 11 9 6 4 3 3 3 3 3 2 2 3
53 62 61 58 57 50 38 32 49 79 100 95 82 96 58 27 23 18 14 12 9 6 4 3 3 3 3 3 2 2 2 2
64 67 58 61 54 40 39 71 91 97 96 96 89 78 46 24 24 17 13 11 7 5 4 3 3 2 2 2 2 2 2 2
63 66 56 67 49 59 64 92 100 94 94 94 93 99 55 26 24 17 12 10 7 5 4 3 3 2 2 2 2 2 2 2
62 59 74 51 66 61 92 100 100 95 100 96 100 96 65 32 25 16 12 10 8 5 4 3 3 3 3 2 2 2 2 2